sim
Sign-in with your pilot id or email,
or register
Callsign
Passwort

Schedule Details

Flight Number: RYR9422 (1)
Departure: Pisa Galileo Galilei Airport (LIRP) at 13:45
Arrival: Fuerteventura Airport (GCFV) at 18:00
Route: Ryanair Passenger Schedule. Enter filed route here before submitting Pirep.

Weather Information
Getting current METAR information for LIRP 211815Z 30004KT CAVOK 26/23 Q1016 NOSIG
Getting current METAR information for GCFV 211830Z 01019KT CAVOK 26/18 Q1013

Schedule Frequency

Route Map